TimeMDT,TemperatureF,Dew PointF,Humidity,Sea Level PressureIn,VisibilityMPH,Wind Direction,Wind SpeedMPH,Gust SpeedMPH,PrecipitationIn,Events,Conditions,WindDirDegrees,DateUTC
12:43 AM,51.8,48.2,88,29.79,10.0,NW,17.3,-,0.01,Rain,Light Rain,320,2013-05-20 06:43:00
12:53 AM,52.0,48.0,86,29.73,10.0,NW,18.4,-,0.01,Rain,Light Rain,320,2013-05-20 06:53:00
1:21 AM,51.8,48.2,88,29.80,10.0,NW,17.3,-,0.00,,Overcast,320,2013-05-20 07:21:00
1:53 AM,51.1,46.0,83,29.73,10.0,NW,18.4,25.3,0.00,,Overcast,320,2013-05-20 07:53:00
2:53 AM,50.0,45.0,83,29.72,10.0,NW,17.3,23.0,N/A,,Scattered Clouds,310,2013-05-20 08:53:00
3:53 AM,50.0,44.1,80,29.74,10.0,WNW,13.8,-,N/A,,Mostly Cloudy,300,2013-05-20 09:53:00
4:53 AM,50.0,44.1,80,29.75,10.0,WNW,13.8,-,N/A,,Overcast,290,2013-05-20 10:53:00
6:53 AM,50.0,42.1,74,29.76,10.0,WNW,20.7,26.5,N/A,,Overcast,300,2013-05-20 12:53:00
8:53 AM,53.1,41.0,64,29.76,10.0,NW,29.9,39.1,N/A,,Overcast,310,2013-05-20 14:53:00
9:53 AM,54.0,41.0,62,29.75,10.0,NW,31.1,42.6,N/A,,Overcast,320,2013-05-20 15:53:00
10:53 AM,54.0,42.1,64,29.75,10.0,NW,35.7,46.0,N/A,,Overcast,320,2013-05-20 16:53:00
11:53 AM,55.9,41.0,57,29.76,10.0,NW,42.6,54.1,0.00,,Overcast,320,2013-05-20 17:53:00
12:53 PM,53.1,42.1,66,29.78,10.0,NW,35.7,47.2,0.00,Rain,Light Rain,320,2013-05-20 18:53:00
1:03 PM,51.8,39.2,62,29.84,10.0,NW,43.7,55.2,0.00,,Overcast,320,2013-05-20 19:03:00
1:16 PM,51.8,39.2,62,29.84,10.0,NNW,36.8,55.2,0.00,,Overcast,330,2013-05-20 19:16:00
1:53 PM,53.1,41.0,64,29.80,10.0,NW,38.0,55.2,0.00,,Overcast,320,2013-05-20 19:53:00
2:35 PM,53.6,41.0,62,29.85,10.0,NW,39.1,52.9,N/A,,Overcast,320,2013-05-20 20:35:00
2:53 PM,53.1,39.9,61,29.80,10.0,NW,43.7,57.5,N/A,,Overcast,320,2013-05-20 20:53:00
3:06 PM,53.6,41.0,62,29.85,10.0,NW,41.4,56.4,N/A,,Overcast,310,2013-05-20 21:06:00
3:53 PM,50.0,42.1,74,29.81,10.0,NW,29.9,47.2,0.00,Rain,Light Rain,320,2013-05-20 21:53:00
4:50 PM,50.0,41.0,71,29.87,10.0,NW,35.7,46.0,0.00,,Overcast,320,2013-05-20 22:50:00
4:53 PM,50.0,41.0,71,29.83,10.0,NW,31.1,46.0,0.00,,Overcast,320,2013-05-20 22:53:00
5:53 PM,51.1,42.1,71,29.83,10.0,NW,27.6,39.1,0.00,,Overcast,320,2013-05-20 23:53:00
6:17 PM,51.8,41.0,67,29.88,10.0,NNW,32.2,42.6,N/A,,Overcast,330,2013-05-21 00:17:00
6:53 PM,52.0,41.0,66,29.84,10.0,NW,25.3,38.0,N/A,,Overcast,320,2013-05-21 00:53:00
8:53 PM,50.0,39.9,68,29.85,10.0,NW,28.8,39.1,N/A,,Mostly Cloudy,320,2013-05-21 02:53:00
9:53 PM,48.0,39.9,74,29.87,10.0,NW,24.2,29.9,N/A,,Scattered Clouds,310,2013-05-21 03:53:00
10:53 PM,46.9,39.0,74,29.87,10.0,NW,21.9,27.6,N/A,,Clear,310,2013-05-21 04:53:00
11:53 PM,46.9,39.0,74,29.86,10.0,NW,20.7,27.6,N/A,,Clear,310,2013-05-21 05:53:00